Home > Time Zones > World Clock > Weather > Italy > Bari > Past weeks

Flag for Italy Weather past 2 weeks in Bari, Italy

Now
75 °F

Passing clouds.


Feels Like: 77 °F
Forecast: 74 / 95 °F
Wind: 2 mph from North

Location: Bari / Palese Macchie

Current Time: Sep 5, 2015 at 12:15:32 AM

Latest Report: Sep 4, 2015 at 11:20 PM


Visibility: N/A

Pressure: 29.92 "Hg

Humidity: 65%

Dew point: 63 °F

Location of BariLocation

Historic Weather in Bari — Graph

°F

Bari temperature yesterday

Maximum temperature yesterday: 88 °F (at 4:20 PM)
Minimum temperature yesterday: 68 °F (at 5:50 AM)
Average temperature yesterday: 78 °F

Past Weeks' High & Low Weather Summary

 TemperatureHumidityPressure
High90 °F (Aug 25, 10:20 AM)94% (Aug 30, 11:20 PM)30.18 "Hg (Aug 30, 11:20 PM)
Low64 °F (Aug 23, 5:50 AM)26% (Sep 3, 11:50 AM)29.86 "Hg (Sep 1, 6:50 PM)
Average78 °F61%30.00 "Hg
* Reported Aug 20 10:20 PM — Sep 4 10:50 PM, Bari, Weather by CustomWeather, © 2015

Note: Actual official high and low records may vary slightly from our data, if they occured in-between our weather recording intervals... More about our weather records

Advertising

Bari weather history for previous 24 hours

 ConditionsComfort  
Time TempWeatherWind HumidityBarometerVisibility
10:50 PM
Fri, Sep 4
77 °FPassing clouds.No wind61%29.92 "HgN/A
9:50 PM79 °FPassing clouds.2 mph58%29.92 "HgN/A
9:20 PM79 °FPassing clouds.2 mph58%29.95 "HgN/A
8:50 PM79 °FPassing clouds.2 mph58%29.95 "HgN/A
8:20 PM79 °FPassing clouds.6 mph65%29.95 "HgN/A
7:50 PM79 °FPassing clouds.6 mph65%29.95 "HgN/A
7:20 PM81 °FPassing clouds.2 mph58%29.95 "HgN/A
6:50 PM84 °FThundershowers. Passing clouds.7 mph45%29.92 "HgN/A
6:20 PM84 °FThundershowers. Passing clouds.7 mph45%29.92 "HgN/A
5:50 PM84 °FPassing clouds.9 mph51%29.92 "HgN/A
5:20 PM88 °FSunny.7 mph38%29.89 "Hg10 mi
4:50 PM88 °FSunny.10 mph46%29.89 "Hg10 mi
4:20 PM88 °FSunny.10 mph46%29.89 "Hg10 mi
3:50 PM86 °FSunny.13 mph49%29.92 "Hg10 mi
11:50 AM86 °FPassing clouds.7 mph43%29.95 "HgN/A
11:20 AM86 °FSunny.7 mph43%29.95 "Hg10 mi
9:50 AM86 °FSunny.3 mph35%29.95 "Hg10 mi
9:20 AM84 °FSunny.2 mph35%29.95 "Hg10 mi
8:50 AM82 °FSunny.2 mph35%29.95 "Hg10 mi
8:20 AM81 °FSunny.3 mph42%29.95 "Hg10 mi
7:50 AM75 °FSunny.6 mph50%29.92 "Hg10 mi
7:20 AM70 °FClear.7 mph57%29.92 "Hg10 mi
6:50 AM68 °FClear.6 mph60%29.92 "Hg10 mi
6:20 AM70 °FClear.2 mph57%29.89 "Hg10 mi
5:50 AM68 °FClear.7 mph64%29.89 "Hg10 mi
5:20 AM70 °FClear.7 mph57%29.89 "Hg10 mi
4:50 AM70 °FPassing clouds.5 mph57%29.89 "HgN/A
4:20 AM70 °FPassing clouds.6 mph60%29.92 "HgN/A
3:50 AM72 °FClear.2 mph61%29.92 "Hg10 mi
3:20 AM72 °FClear.2 mph61%29.92 "Hg10 mi
2:50 AM73 °FClear.6 mph61%29.92 "Hg10 mi
2:20 AM72 °FClear.9 mph65%29.92 "Hg10 mi
1:50 AM72 °FClear.9 mph65%29.92 "Hg10 mi
1:20 AM73 °FPassing clouds.No wind57%29.92 "HgN/A
12:50 AM73 °FPassing clouds.No wind57%29.92 "HgN/A
Weather by CustomWeather, © 2015

See weather overviewHow to use our weather pages